Flag for U.S.A. Weather past 2 weeks in Alexandria, Virginia, U.S.A.

Now
51 °F

Passing clouds.


Feels Like: 47 °F
Forecast: 45 / 69 °F
Wind: 10 mph from Northwest

Location: Reagan National Airport

Current Time: Apr 28, 2015 at 1:48:34 AM

Latest Report: Apr 28, 2015 at 12:52 AM


Visibility: 10 mi

Pressure: 29.91 "Hg

Humidity: 56%

Dew point: 36 °F

Location of AlexandriaLocation

Historic Weather in Alexandria — Graph

°F

Alexandria temperature yesterday

Maximum temperature yesterday: 62 °F (at 3:52 PM)
Minimum temperature yesterday: 49 °F (at 4:52 AM)
Average temperature yesterday: 55 °F

Past Weeks' High & Low Weather Summary

 TemperatureHumidityPressure
High83 °F (Apr 18, 4:52 PM)90% (Apr 14, 7:52 AM)30.43 "Hg (Apr 14, 7:52 AM)
Low40 °F (Apr 24, 5:52 AM)19% (Apr 24, 5:52 PM)29.50 "Hg (Apr 20, 7:52 PM)
Average61 °F53%29.96 "Hg
* Reported Apr 12 11:52 PM — Apr 27 11:52 PM, Alexandria, Weather by CustomWeather, © 2015

Note: Actual official high and low records may vary slightly from our data, if they occured in-between our weather recording intervals... More about our weather records

Advertising

Alexandria weather history for previous 24 hours

 ConditionsComfort  
Time TempWeatherWind HumidityBarometerVisibility
11:52 PM
Mon, Apr 27
52 °FPassing clouds.14 mph57%29.90 "Hg10 mi
10:52 PM53 °FPassing clouds.17 mph56%29.88 "Hg10 mi
9:52 PM54 °FMostly cloudy.9 mph57%29.88 "Hg10 mi
8:52 PM55 °FMostly cloudy.12 mph53%29.86 "Hg10 mi
7:52 PM57 °FLight rain. Mostly cloudy.20 mph47%29.85 "Hg10 mi
6:52 PM59 °FCloudy.15 mph39%29.82 "Hg10 mi
5:52 PM60 °FPartly sunny.15 mph35%29.81 "Hg10 mi
4:52 PM60 °FPartly sunny.16 mph35%29.78 "Hg10 mi
3:52 PM62 °FScattered clouds.17 mph35%29.78 "Hg10 mi
2:52 PM60 °FBroken clouds.15 mph39%29.79 "Hg10 mi
1:52 PM58 °FMostly cloudy.13 mph41%29.80 "Hg10 mi
12:52 PM58 °FMostly cloudy.15 mph43%29.81 "Hg10 mi
11:52 AM60 °FBroken clouds.10 mph41%29.80 "Hg10 mi
10:52 AM59 °FBroken clouds.9 mph42%29.80 "Hg10 mi
9:52 AM58 °FPartly sunny.12 mph43%29.80 "Hg10 mi
8:52 AM56 °FScattered clouds.13 mph44%29.79 "Hg10 mi
7:52 AM53 °FScattered clouds.12 mph45%29.78 "Hg10 mi
6:52 AM49 °FPassing clouds.9 mph55%29.77 "Hg10 mi
5:52 AM49 °FPassing clouds.9 mph52%29.76 "Hg10 mi
4:52 AM49 °FPartly cloudy.6 mph52%29.75 "Hg10 mi
3:52 AM50 °FPassing clouds.7 mph52%29.75 "Hg10 mi
2:52 AM52 °FPassing clouds.7 mph47%29.75 "Hg10 mi
1:52 AM54 °FPassing clouds.16 mph43%29.74 "Hg10 mi
Weather by CustomWeather, © 2015

See weather overviewHow to use our weather pages